Concord, NC

5:21 AM EDT on September 21, 2017 (GMT -0400)
Concord Regional

Weather History for KJQF - May, 2014

Change the Weather History Date:

Monday, May 5, 2014

  Actual Average (KCLT) Record (KCLT)
Temperature  
Mean Temperature 70 °F -  
Max Temperature 89 °F 76 °F 91 °F (1955)
Min Temperature 51 °F 49 °F 36 °F (1940)
Cooling Degree Days 5    
Growing Degree Days 20 (Base 50)    
Moisture  
Dew Point 49 °F    
Average Humidity 59    
Maximum Humidity 94    
Minimum Humidity 22    
Precipitation  
Precipitation 0.00 in - - ()
Sea Level Pressure  
Sea Level Pressure 29.95 in    
Wind  
Wind Speed 2 mph (SW)    
Max Wind Speed 15 mph    
Max Gust Speed 21 mph    
Visibility 10 miles    
Events      
Averages and records for this station are not official NWS values.
T = Trace of Precipitation, MM = Missing Value Source: NWS Daily Summary

Daily Weather History Graph

Daily Weather History Graph

Search for Another Location

Airport or City:

Trip Planner

Search our weather history database for the weather conditions in past years. The results will help you decide how hot, cold, wet, or windy it might be!

Date:

Astronomy

May. 05, 2014 Rise Set
Actual Time 6:27 AM EDT 8:12 PM EDT
Civil Twilight 5:59 AM EDT 8:39 PM EDT
Nautical Twilight 5:26 AM EDT 9:13 PM EDT
Astronomical Twilight 4:51 AM EDT 9:48 PM EDT
Moon 11:44 AM EDT (5/5) 12:55 AM EDT (5/5)
Length of Visible Light 14h 40m
Length of Day
13h 45m
Waxing Crescent, 36% of the Moon is Illuminated
May 5
Waxing Crescent
May 6
First Quarter
May 14
Full
May 21
Last Quarter
May 28
New

Hourly Weather History & Observations

Time (EDT) Temp. Dew Point Humidity Pressure Visibility Wind Dir Wind Speed Gust Speed Precip Events Conditions
12:15 AM 60.8 °F 51.8 °F 72% 29.96 in 10.0 mi Calm Calm - N/A   Clear
12:35 AM 60.8 °F 51.8 °F 72% 29.96 in 10.0 mi Calm Calm - N/A   Clear
12:55 AM 59.0 °F 51.8 °F 77% 29.97 in 10.0 mi Calm Calm - N/A   Clear
1:15 AM 59.0 °F 51.8 °F 77% 29.97 in 10.0 mi Calm Calm - N/A   Clear
1:35 AM 59.0 °F 50.0 °F 72% 29.97 in 10.0 mi Calm Calm - N/A   Clear
1:55 AM 59.0 °F 50.0 °F 72% 29.97 in 10.0 mi Calm Calm - N/A   Clear
2:15 AM 55.4 °F 50.0 °F 82% 29.97 in 10.0 mi Calm Calm - N/A   Clear
2:35 AM 55.4 °F 50.0 °F 82% 29.96 in 10.0 mi Calm Calm - N/A   Clear
2:55 AM 55.4 °F 50.0 °F 82% 29.96 in 10.0 mi Calm Calm - N/A   Clear
3:15 AM 55.4 °F 50.0 °F 82% 29.97 in 10.0 mi Calm Calm - N/A   Clear
3:35 AM 53.6 °F 50.0 °F 88% 29.97 in 10.0 mi Calm Calm - N/A   Clear
3:55 AM 53.6 °F 50.0 °F 88% 29.97 in 10.0 mi Calm Calm - N/A   Clear
4:15 AM 53.6 °F 50.0 °F 88% 29.98 in 10.0 mi Calm Calm - N/A   Clear
4:35 AM 53.6 °F 50.0 °F 88% 29.98 in 10.0 mi Calm Calm - N/A   Clear
4:55 AM 53.6 °F 50.0 °F 88% 29.98 in 10.0 mi Calm Calm - N/A   Clear
5:15 AM 53.6 °F 50.0 °F 88% 29.98 in 10.0 mi Calm Calm - N/A   Clear
5:35 AM 51.8 °F 50.0 °F 94% 29.99 in 10.0 mi Calm Calm - N/A   Clear
5:55 AM 51.8 °F 50.0 °F 94% 29.99 in 10.0 mi Calm Calm - N/A   Clear
6:15 AM 53.6 °F 51.8 °F 94% 30.01 in 10.0 mi Calm Calm - N/A   Clear
6:35 AM 53.6 °F 50.0 °F 88% 30.01 in 10.0 mi Calm Calm - N/A   Clear
6:52 AM 55.4 °F 51.8 °F 88% 30.02 in 10.0 mi Calm Calm - N/A   Clear
7:52 AM 60.8 °F 55.4 °F 82% 30.03 in 10.0 mi Calm Calm - N/A   Clear
8:55 AM 69.8 °F 51.8 °F 53% 30.04 in 10.0 mi Calm Calm - N/A   Clear
9:52 AM 73.4 °F 51.8 °F 47% 30.03 in 10.0 mi SE 5.8 mph - N/A   Clear
10:52 AM 75.2 °F 51.8 °F 44% 30.02 in 10.0 mi SE 4.6 mph - N/A   Clear
11:55 AM 80.6 °F 51.8 °F 37% 30.01 in 10.0 mi Calm Calm - N/A   Clear
12:52 PM 82.4 °F 50.0 °F 32% 29.99 in 10.0 mi Calm Calm - N/A   Clear
1:52 PM 84.2 °F 48.2 °F 29% 29.96 in 10.0 mi Calm Calm - N/A   Clear
2:53 PM 87.8 °F 46.4 °F 24% 29.93 in 10.0 mi South 5.8 mph - N/A   Clear
3:55 PM 89.6 °F 48.2 °F 24% 29.90 in 10.0 mi SW 9.2 mph 17.3 mph N/A   Clear
4:55 PM 89.6 °F 46.4 °F 22% 29.88 in 10.0 mi SSW 15.0 mph 20.7 mph N/A   Clear
5:52 PM 87.8 °F 46.4 °F 24% 29.87 in 10.0 mi West 12.7 mph 18.4 mph N/A   Clear
6:55 PM 87.8 °F 50.0 °F 27% 29.86 in 10.0 mi SW 8.1 mph - N/A   Clear
7:55 PM 84.2 °F 48.2 °F 29% 29.86 in 10.0 mi SSW 4.6 mph - N/A   Clear
8:55 PM 80.6 °F 48.2 °F 32% 29.86 in 10.0 mi SSW 4.6 mph - N/A   Clear
9:55 PM 78.8 °F 46.4 °F 32% 29.87 in 10.0 mi SW 9.2 mph - N/A   Clear
10:15 PM 78.8 °F 44.6 °F 30% 29.87 in 10.0 mi SSW 10.4 mph - N/A   Clear
10:35 PM 78.8 °F 44.6 °F 30% 29.87 in 10.0 mi SW 12.7 mph 16.1 mph N/A   Clear
10:55 PM 78.8 °F 44.6 °F 30% 29.87 in 10.0 mi SW 11.5 mph 16.1 mph N/A   Clear
11:15 PM 78.8 °F 44.6 °F 30% 29.88 in 10.0 mi West 5.8 mph - N/A   Clear
11:35 PM 73.4 °F 46.4 °F 38% 29.89 in 10.0 mi NW 4.6 mph - N/A   Clear
11:55 PM 71.6 °F 48.2 °F 43% 29.89 in 10.0 mi NW 4.6 mph - N/A   Clear